Location: Luxembourg
(49.6117°N, 6.1300°E)
Time: 07:12:22
(UTC+01:00)

First-Move - Visible Passes

Search period start: 23 March 2019 00:00
Search period end: 02 April 2019 01:00
Orbit: 578 x 669 km, 97.6° (Epoch: 21 March)

Date Brightness Start Highest point End Pass type
(mag) Time Alt. Az. Time Alt. Az. Time Alt. Az.
23 Mar ? 20:07:33 10° WSW 20:09:31 13° W 20:11:32 10° WNW visible
26 Mar ? 19:24:20 10° SSW 19:28:10 30° W 19:32:07 10° NNW visible
27 Mar ? 19:43:28 10° SW 19:46:46 21° W 19:50:08 10° NW visible
28 Mar ? 20:03:04 10° WSW 20:05:25 14° W 20:07:49 10° NW visible
01 Apr ? 20:39:10 10° SW 20:42:39 23° W 20:46:14 10° NW visible
